User: anonymous   Login
Location: Santa Teresa Spring
(37.2333°N, 121.7000°W)
Time: 23:53:18
(UTC-08:00)
Language:

Cosmos 1633 - Orbit

View from above orbital plane
View from above orbital plane
View from above satellite
View from above satellite

Ground track
Ground track

The orbit data is extracted from the following two-line orbital elements,

1 15592U 85020A   17324.69313575  .00001890  00000-0  65624-4 0  9998
2 15592  82.5369 162.4582 0013257 350.4590   9.6396 15.29043036788200
Epoch (UTC): 20 November 2017 16:38:06
Eccentricity: 0.0013257
inclination: 82.5369°
perigee height: 469 km
apogee height: 488 km
right ascension of ascending node: 162.4582°
argument of perigee: 350.4590°
revolutions per day: 15.29043036
mean anomaly at epoch: 9.6396°
orbit number at epoch: 78820

The dashed part of the orbit path shows where the satellite is in the earth's shadow,  

DLR